24h
KLIENDITUGI:
Saartelennuliinid: +372 58856336 (24/7)
Estairi piletikassa lennujaamas:
+372 6058887; +372 55603687

05.11.2018 õhtune Transaviabaltika lend KTB676 Tallinn - Kärdla ja KTB677 Kärdla – Tallinn väljalend jääb ära. Lennu ära jäämise põhjustab madalad pilved Kärdla lennuvälja kohal. Reisijatele võimaldatakse tasuta lennupileti ümberbroneerimine reisija soovi kohasele mõnele teisele Tallinn-Kärdla või Kärdla-Tallinn lennule. Reisijatele kes ei soovi lennupileti ümberbroneerimist teisele lennule tagastatakse piletiraha. Oma soovist tuleb teada anda e-mailile [email protected] Lisainformatsioon telefonil 58856336

EEKA Kärdla lennuväli FCEO32 EETN 051300

TAF EEKA 051300Z 0514/0520 17010KT 4000 BR OVC004

TEMPO 0514/0520 1200 DZ BCFG OVC002=

METAR EEKA 051350Z 15009KT 3400 BR OVC002 07/07 Q1023=

Kuupäev: 
05/11/2018